owner,sensor,date,latitude,longitude,sea_water_turbidity,qcFlag 
SCCF RECON,ioos:station:SCCF:11:1,2013-09-01T00:00:00Z,26.4679,-82.0631,3.77,1111122 
SCCF RECON,ioos:station:SCCF:11:1,2013-09-01T01:00:00Z,26.4679,-82.0631,4.12,1111122 
SCCF RECON,ioos:station:SCCF:11:1,2013-09-01T02:00:00Z,26.4679,-82.0631,3.96,1111122 
SCCF RECON,ioos:station:SCCF:11:1,2013-09-01T03:00:00Z,26.4679,-82.0631,3.56,1111122 
SCCF RECON,ioos:station:SCCF:11:1,2013-09-01T04:00:00Z,26.4679,-82.0631,3.42,1111122 
SCCF RECON,ioos:station:SCCF:11:1,2013-09-01T05:00:00Z,26.4679,-82.0631,3.29,1111122 
SCCF RECON,ioos:station:SCCF:11:1,2013-09-01T06:00:00Z,26.4679,-82.0631,3.78,1111122 
SCCF RECON,ioos:station:SCCF:11:1,2013-09-01T07:00:00Z,26.4679,-82.0631,3.35,1111122 
SCCF RECON,ioos:station:SCCF:11:1,2013-09-01T08:00:00Z,26.4679,-82.0631,3.25,1111122 
SCCF RECON,ioos:station:SCCF:11:1,2013-09-01T09:00:00Z,26.4679,-82.0631,3.23,1111122 
SCCF RECON,ioos:station:SCCF:11:1,2013-09-01T10:00:00Z,26.4679,-82.0631,2.49,1111122 
SCCF RECON,ioos:station:SCCF:11:1,2013-09-01T11:00:00Z,26.4679,-82.0631,2.57,1111122 
SCCF RECON,ioos:station:SCCF:11:1,2013-09-01T12:00:00Z,26.4679,-82.0631,2.85,1111122 
SCCF RECON,ioos:station:SCCF:11:1,2013-09-01T13:00:00Z,26.4679,-82.0631,2.92,1111122 
SCCF RECON,ioos:station:SCCF:11:1,2013-09-01T14:00:00Z,26.4679,-82.0631,3.21,1111122 
SCCF RECON,ioos:station:SCCF:11:1,2013-09-01T15:00:00Z,26.4679,-82.0631,2.63,1111122 
SCCF RECON,ioos:station:SCCF:11:1,2013-09-01T16:00:00Z,26.4679,-82.0631,3.43,1111122 
SCCF RECON,ioos:station:SCCF:11:1,2013-09-01T17:00:00Z,26.4679,-82.0631,3.23,1111122 
SCCF RECON,ioos:station:SCCF:11:1,2013-09-01T18:00:00Z,26.4679,-82.0631,3.05,1111122 
SCCF RECON,ioos:station:SCCF:11:1,2013-09-01T19:00:00Z,26.4679,-82.0631,2.92,1111122 
SCCF RECON,ioos:station:SCCF:11:1,2013-09-01T20:00:00Z,26.4679,-82.0631,2.98,1111122 
SCCF RECON,ioos:station:SCCF:11:1,2013-09-01T21:00:00Z,26.4679,-82.0631,3.08,1111122 
SCCF RECON,ioos:station:SCCF:11:1,2013-09-01T22:00:00Z,26.4679,-82.0631,3.24,1111122 
SCCF RECON,ioos:station:SCCF:11:1,2013-09-01T23:00:00Z,26.4679,-82.0631,3.29,1111122 
SCCF RECON,ioos:station:SCCF:11:1,2013-09-02T00:00:00Z,26.4679,-82.0631,5.61,1111122 
SCCF RECON,ioos:station:SCCF:11:1,2013-09-02T01:00:00Z,26.4679,-82.0631,4.58,1111122 
SCCF RECON,ioos:station:SCCF:11:1,2013-09-02T02:00:00Z,26.4679,-82.0631,5.09,1111122 
SCCF RECON,ioos:station:SCCF:11:1,2013-09-02T03:00:00Z,26.4679,-82.0631,4.31,1111122 
SCCF RECON,ioos:station:SCCF:11:1,2013-09-02T04:00:00Z,26.4679,-82.0631,3.86,1111122 
SCCF RECON,ioos:station:SCCF:11:1,2013-09-02T05:00:00Z,26.4679,-82.0631,3.4,1111122 
SCCF RECON,ioos:station:SCCF:11:1,2013-09-02T06:00:00Z,26.4679,-82.0631,3.0,1111122 
SCCF RECON,ioos:station:SCCF:11:1,2013-09-02T07:00:00Z,26.4679,-82.0631,3.81,1111122 
SCCF RECON,ioos:station:SCCF:11:1,2013-09-02T08:00:00Z,26.4679,-82.0631,3.47,1111122 
SCCF RECON,ioos:station:SCCF:11:1,2013-09-02T09:00:00Z,26.4679,-82.0631,3.26,1111122 
SCCF RECON,ioos:station:SCCF:11:1,2013-09-02T10:00:00Z,26.4679,-82.0631,3.09,1111122 
SCCF RECON,ioos:station:SCCF:11:1,2013-09-02T11:00:00Z,26.4679,-82.0631,3.02,1111122 
SCCF RECON,ioos:station:SCCF:11:1,2013-09-02T12:00:00Z,26.4679,-82.0631,3.25,1111122 
SCCF RECON,ioos:station:SCCF:11:1,2013-09-02T13:00:00Z,26.4679,-82.0631,3.38,1111122 
SCCF RECON,ioos:station:SCCF:11:1,2013-09-02T14:00:00Z,26.4679,-82.0631,3.0,1111122 
SCCF RECON,ioos:station:SCCF:11:1,2013-09-02T15:00:00Z,26.4679,-82.0631,3.22,1111122 
SCCF RECON,ioos:station:SCCF:11:1,2013-09-02T16:00:00Z,26.4679,-82.0631,3.02,1111122 
SCCF RECON,ioos:station:SCCF:11:1,2013-09-02T17:00:00Z,26.4679,-82.0631,3.55,1111122 
SCCF RECON,ioos:station:SCCF:11:1,2013-09-02T18:00:00Z,26.4679,-82.0631,3.51,1111122 
SCCF RECON,ioos:station:SCCF:11:1,2013-09-02T19:00:00Z,26.4679,-82.0631,3.12,1111122 
SCCF RECON,ioos:station:SCCF:11:1,2013-09-02T20:00:00Z,26.4679,-82.0631,3.23,1111122 
SCCF RECON,ioos:station:SCCF:11:1,2013-09-02T21:00:00Z,26.4679,-82.0631,3.54,1111122 
SCCF RECON,ioos:station:SCCF:11:1,2013-09-02T22:00:00Z,26.4679,-82.0631,4.28,1111122 
SCCF RECON,ioos:station:SCCF:11:1,2013-09-02T23:00:00Z,26.4679,-82.0631,3.81,1111122 
SCCF RECON,ioos:station:SCCF:11:1,2013-09-03T00:00:00Z,26.4679,-82.0631,5.04,1111122 
SCCF RECON,ioos:station:SCCF:11:1,2013-09-03T01:00:00Z,26.4679,-82.0631,3.92,1111122 
SCCF RECON,ioos:station:SCCF:11:1,2013-09-03T02:00:00Z,26.4679,-82.0631,3.54,1111122 
SCCF RECON,ioos:station:SCCF:11:1,2013-09-03T03:00:00Z,26.4679,-82.0631,3.81,1111122 
SCCF RECON,ioos:station:SCCF:11:1,2013-09-03T04:00:00Z,26.4679,-82.0631,4.69,1111122 
SCCF RECON,ioos:station:SCCF:11:1,2013-09-03T05:00:00Z,26.4679,-82.0631,3.33,1111122 
SCCF RECON,ioos:station:SCCF:11:1,2013-09-03T06:00:00Z,26.4679,-82.0631,3.05,1111122 
SCCF RECON,ioos:station:SCCF:11:1,2013-09-03T07:00:00Z,26.4679,-82.0631,3.1,1111122 
SCCF RECON,ioos:station:SCCF:11:1,2013-09-03T08:00:00Z,26.4679,-82.0631,2.97,1111122 
SCCF RECON,ioos:station:SCCF:11:1,2013-09-03T09:00:00Z,26.4679,-82.0631,3.0,1111122 
SCCF RECON,ioos:station:SCCF:11:1,2013-09-03T10:00:00Z,26.4679,-82.0631,2.83,1111122 
SCCF RECON,ioos:station:SCCF:11:1,2013-09-03T11:00:00Z,26.4679,-82.0631,3.11,1111122 
SCCF RECON,ioos:station:SCCF:11:1,2013-09-03T12:00:00Z,26.4679,-82.0631,2.71,1111122 
SCCF RECON,ioos:station:SCCF:11:1,2013-09-03T13:00:00Z,26.4679,-82.0631,3.02,1111122 
SCCF RECON,ioos:station:SCCF:11:1,2013-09-03T14:00:00Z,26.4679,-82.0631,5.19,1111122 
SCCF RECON,ioos:station:SCCF:11:1,2013-09-03T15:00:00Z,26.4679,-82.0631,3.26,1111122 
SCCF RECON,ioos:station:SCCF:11:1,2013-09-03T16:00:00Z,26.4679,-82.0631,2.73,1111122 
SCCF RECON,ioos:station:SCCF:11:1,2013-09-03T17:00:00Z,26.4679,-82.0631,2.57,1111122 
SCCF RECON,ioos:station:SCCF:11:1,2013-09-03T18:00:00Z,26.4679,-82.0631,3.26,1111122 
SCCF RECON,ioos:station:SCCF:11:1,2013-09-03T19:00:00Z,26.4679,-82.0631,3.07,1111122 
SCCF RECON,ioos:station:SCCF:11:1,2013-09-03T20:00:00Z,26.4679,-82.0631,2.94,1111122 
SCCF RECON,ioos:station:SCCF:11:1,2013-09-03T21:00:00Z,26.4679,-82.0631,3.64,1111122 
SCCF RECON,ioos:station:SCCF:11:1,2013-09-03T22:00:00Z,26.4679,-82.0631,3.46,1111122 
SCCF RECON,ioos:station:SCCF:11:1,2013-09-03T23:00:00Z,26.4679,-82.0631,3.72,1111122 
SCCF RECON,ioos:station:SCCF:11:1,2013-09-04T00:00:00Z,26.4679,-82.0631,3.13,1111122 
SCCF RECON,ioos:station:SCCF:11:1,2013-09-04T01:00:00Z,26.4679,-82.0631,4.08,1111122 
SCCF RECON,ioos:station:SCCF:11:1,2013-09-04T02:00:00Z,26.4679,-82.0631,3.72,1111122 
SCCF RECON,ioos:station:SCCF:11:1,2013-09-04T03:00:00Z,26.4679,-82.0631,3.59,1111122 
SCCF RECON,ioos:station:SCCF:11:1,2013-09-04T04:00:00Z,26.4679,-82.0631,3.9,1111122 
SCCF RECON,ioos:station:SCCF:11:1,2013-09-04T05:00:00Z,26.4679,-82.0631,3.36,1111122 
SCCF RECON,ioos:station:SCCF:11:1,2013-09-04T06:00:00Z,26.4679,-82.0631,3.48,1111122 
SCCF RECON,ioos:station:SCCF:11:1,2013-09-04T07:00:00Z,26.4679,-82.0631,3.2,1111122 
SCCF RECON,ioos:station:SCCF:11:1,2013-09-04T08:00:00Z,26.4679,-82.0631,3.05,1111122 
SCCF RECON,ioos:station:SCCF:11:1,2013-09-04T09:00:00Z,26.4679,-82.0631,2.93,1111122 
SCCF RECON,ioos:station:SCCF:11:1,2013-09-04T10:00:00Z,26.4679,-82.0631,3.19,1111122 
SCCF RECON,ioos:station:SCCF:11:1,2013-09-04T11:00:00Z,26.4679,-82.0631,3.09,1111122 
SCCF RECON,ioos:station:SCCF:11:1,2013-09-04T12:00:00Z,26.4679,-82.0631,3.42,1111122 
SCCF RECON,ioos:station:SCCF:11:1,2013-09-04T13:00:00Z,26.4679,-82.0631,3.52,1111122 
SCCF RECON,ioos:station:SCCF:11:1,2013-09-04T14:00:00Z,26.4679,-82.0631,4.19,1111122 
SCCF RECON,ioos:station:SCCF:11:1,2013-09-04T15:00:00Z,26.4679,-82.0631,4.22,1111122 
SCCF RECON,ioos:station:SCCF:11:1,2013-09-04T16:00:00Z,26.4679,-82.0631,3.8,1111122 
SCCF RECON,ioos:station:SCCF:11:1,2013-09-04T17:00:00Z,26.4679,-82.0631,3.41,1111122 
SCCF RECON,ioos:station:SCCF:11:1,2013-09-04T18:00:00Z,26.4679,-82.0631,3.34,1111122 
SCCF RECON,ioos:station:SCCF:11:1,2013-09-04T19:00:00Z,26.4679,-82.0631,3.48,1111122 
SCCF RECON,ioos:station:SCCF:11:1,2013-09-04T20:00:00Z,26.4679,-82.0631,3.8,1111122 
SCCF RECON,ioos:station:SCCF:11:1,2013-09-04T21:00:00Z,26.4679,-82.0631,3.4,1111122 
SCCF RECON,ioos:station:SCCF:11:1,2013-09-04T22:00:00Z,26.4679,-82.0631,3.71,1111122 
SCCF RECON,ioos:station:SCCF:11:1,2013-09-04T23:00:00Z,26.4679,-82.0631,3.8,1111122 
SCCF RECON,ioos:station:SCCF:11:1,2013-09-05T00:00:00Z,26.4679,-82.0631,3.9,1111122 
SCCF RECON,ioos:station:SCCF:11:1,2013-09-05T01:00:00Z,26.4679,-82.0631,3.65,1111122 
SCCF RECON,ioos:station:SCCF:11:1,2013-09-05T02:00:00Z,26.4679,-82.0631,5.48,1111122 
SCCF RECON,ioos:station:SCCF:11:1,2013-09-05T03:00:00Z,26.4679,-82.0631,5.55,1111122 
SCCF RECON,ioos:station:SCCF:11:1,2013-09-05T04:00:00Z,26.4679,-82.0631,4.78,1111122 
SCCF RECON,ioos:station:SCCF:11:1,2013-09-05T05:00:00Z,26.4679,-82.0631,4.05,1111122 
SCCF RECON,ioos:station:SCCF:11:1,2013-09-05T06:00:00Z,26.4679,-82.0631,3.64,1111122 
SCCF RECON,ioos:station:SCCF:11:1,2013-09-05T07:00:00Z,26.4679,-82.0631,3.98,1111122 
SCCF RECON,ioos:station:SCCF:11:1,2013-09-05T08:00:00Z,26.4679,-82.0631,3.37,1111122 
SCCF RECON,ioos:station:SCCF:11:1,2013-09-05T09:00:00Z,26.4679,-82.0631,3.97,1111122 
SCCF RECON,ioos:station:SCCF:11:1,2013-09-05T10:00:00Z,26.4679,-82.0631,3.93,1111122 
SCCF RECON,ioos:station:SCCF:11:1,2013-09-05T11:00:00Z,26.4679,-82.0631,3.75,1111122 
SCCF RECON,ioos:station:SCCF:11:1,2013-09-05T12:00:00Z,26.4679,-82.0631,3.28,1111122 
SCCF RECON,ioos:station:SCCF:11:1,2013-09-05T13:00:00Z,26.4679,-82.0631,4.02,1111122 
SCCF RECON,ioos:station:SCCF:11:1,2013-09-05T14:00:00Z,26.4679,-82.0631,4.47,1111122 
SCCF RECON,ioos:station:SCCF:11:1,2013-09-05T15:00:00Z,26.4679,-82.0631,5.06,1111122 
SCCF RECON,ioos:station:SCCF:11:1,2013-09-05T16:00:00Z,26.4679,-82.0631,4.09,1111122 
SCCF RECON,ioos:station:SCCF:11:1,2013-09-05T17:00:00Z,26.4679,-82.0631,5.29,1111122 
SCCF RECON,ioos:station:SCCF:11:1,2013-09-05T18:00:00Z,26.4679,-82.0631,4.17,1111122 
SCCF RECON,ioos:station:SCCF:11:1,2013-09-05T19:00:00Z,26.4679,-82.0631,4.42,1111122 
SCCF RECON,ioos:station:SCCF:11:1,2013-09-05T20:00:00Z,26.4679,-82.0631,4.09,1111122 
SCCF RECON,ioos:station:SCCF:11:1,2013-09-05T21:00:00Z,26.4679,-82.0631,3.5,1111122 
SCCF RECON,ioos:station:SCCF:11:1,2013-09-05T22:00:00Z,26.4679,-82.0631,4.08,1111122 
SCCF RECON,ioos:station:SCCF:11:1,2013-09-05T23:00:00Z,26.4679,-82.0631,4.41,1111122 
SCCF RECON,ioos:station:SCCF:11:1,2013-09-06T00:00:00Z,26.4679,-82.0631,3.94,1111122 
SCCF RECON,ioos:station:SCCF:11:1,2013-09-06T01:00:00Z,26.4679,-82.0631,3.74,1111122 
SCCF RECON,ioos:station:SCCF:11:1,2013-09-06T02:00:00Z,26.4679,-82.0631,3.41,1111122 
SCCF RECON,ioos:station:SCCF:11:1,2013-09-06T03:00:00Z,26.4679,-82.0631,4.39,1111122 
SCCF RECON,ioos:station:SCCF:11:1,2013-09-06T04:00:00Z,26.4679,-82.0631,4.79,1111122 
SCCF RECON,ioos:station:SCCF:11:1,2013-09-06T05:00:00Z,26.4679,-82.0631,4.04,1111122 
SCCF RECON,ioos:station:SCCF:11:1,2013-09-06T06:00:00Z,26.4679,-82.0631,3.6,1111122 
SCCF RECON,ioos:station:SCCF:11:1,2013-09-06T07:00:00Z,26.4679,-82.0631,3.57,1111122 
SCCF RECON,ioos:station:SCCF:11:1,2013-09-06T08:00:00Z,26.4679,-82.0631,3.8,1111122 
SCCF RECON,ioos:station:SCCF:11:1,2013-09-06T09:00:00Z,26.4679,-82.0631,3.76,1111122 
SCCF RECON,ioos:station:SCCF:11:1,2013-09-06T10:00:00Z,26.4679,-82.0631,3.87,1111122 
SCCF RECON,ioos:station:SCCF:11:1,2013-09-06T11:00:00Z,26.4679,-82.0631,3.67,1111122 
SCCF RECON,ioos:station:SCCF:11:1,2013-09-06T12:00:00Z,26.4679,-82.0631,3.4,1111122 
SCCF RECON,ioos:station:SCCF:11:1,2013-09-06T13:00:00Z,26.4679,-82.0631,3.16,1111122 
SCCF RECON,ioos:station:SCCF:11:1,2013-09-06T14:00:00Z,26.4679,-82.0631,4.62,1111122 
SCCF RECON,ioos:station:SCCF:11:1,2013-09-06T15:00:00Z,26.4679,-82.0631,4.16,1111122 
SCCF RECON,ioos:station:SCCF:11:1,2013-09-06T16:00:00Z,26.4679,-82.0631,4.7,1111122 
SCCF RECON,ioos:station:SCCF:11:1,2013-09-06T17:00:00Z,26.4679,-82.0631,4.25,1111122 
SCCF RECON,ioos:station:SCCF:11:1,2013-09-06T18:00:00Z,26.4679,-82.0631,4.72,1111122 
SCCF RECON,ioos:station:SCCF:11:1,2013-09-06T19:00:00Z,26.4679,-82.0631,3.98,1111122 
SCCF RECON,ioos:station:SCCF:11:1,2013-09-06T20:00:00Z,26.4679,-82.0631,4.12,1111122 
SCCF RECON,ioos:station:SCCF:11:1,2013-09-06T21:00:00Z,26.4679,-82.0631,3.58,1111122 
SCCF RECON,ioos:station:SCCF:11:1,2013-09-06T22:00:00Z,26.4679,-82.0631,3.82,1111122 
SCCF RECON,ioos:station:SCCF:11:1,2013-09-06T23:00:00Z,26.4679,-82.0631,4.21,1111122 
SCCF RECON,ioos:station:SCCF:11:1,2013-09-07T00:00:00Z,26.4679,-82.0631,4.18,1111122 
SCCF RECON,ioos:station:SCCF:11:1,2013-09-07T01:00:00Z,26.4679,-82.0631,8.46,1111122 
SCCF RECON,ioos:station:SCCF:11:1,2013-09-07T02:00:00Z,26.4679,-82.0631,5.64,1111122 
SCCF RECON,ioos:station:SCCF:11:1,2013-09-07T03:00:00Z,26.4679,-82.0631,13.07,1111122 
SCCF RECON,ioos:station:SCCF:11:1,2013-09-07T04:00:00Z,26.4679,-82.0631,8.95,1111122 
SCCF RECON,ioos:station:SCCF:11:1,2013-09-07T05:00:00Z,26.4679,-82.0631,6.41,1111122 
SCCF RECON,ioos:station:SCCF:11:1,2013-09-07T06:00:00Z,26.4679,-82.0631,5.2,1111122 
SCCF RECON,ioos:station:SCCF:11:1,2013-09-07T07:00:00Z,26.4679,-82.0631,4.37,1111122 
SCCF RECON,ioos:station:SCCF:11:1,2013-09-07T08:00:00Z,26.4679,-82.0631,4.37,1111122 
SCCF RECON,ioos:station:SCCF:11:1,2013-09-07T09:00:00Z,26.4679,-82.0631,15.39,1111122 
SCCF RECON,ioos:station:SCCF:11:1,2013-09-07T10:00:00Z,26.4679,-82.0631,5.26,1111122 
SCCF RECON,ioos:station:SCCF:11:1,2013-09-07T11:00:00Z,26.4679,-82.0631,4.28,1111122 
SCCF RECON,ioos:station:SCCF:11:1,2013-09-07T12:00:00Z,26.4679,-82.0631,5.29,1111122 
SCCF RECON,ioos:station:SCCF:11:1,2013-09-07T13:00:00Z,26.4679,-82.0631,4.7,1111122 
SCCF RECON,ioos:station:SCCF:11:1,2013-09-07T14:00:00Z,26.4679,-82.0631,4.76,1111122 
SCCF RECON,ioos:station:SCCF:11:1,2013-09-07T15:00:00Z,26.4679,-82.0631,6.69,1111122 
SCCF RECON,ioos:station:SCCF:11:1,2013-09-07T16:00:00Z,26.4679,-82.0631,6.53,1111122 
SCCF RECON,ioos:station:SCCF:11:1,2013-09-07T17:00:00Z,26.4679,-82.0631,6.25,1111122 
SCCF RECON,ioos:station:SCCF:11:1,2013-09-07T18:00:00Z,26.4679,-82.0631,5.07,1111122 
SCCF RECON,ioos:station:SCCF:11:1,2013-09-07T19:00:00Z,26.4679,-82.0631,5.54,1111122 
SCCF RECON,ioos:station:SCCF:11:1,2013-09-07T20:00:00Z,26.4679,-82.0631,4.36,1111122 
SCCF RECON,ioos:station:SCCF:11:1,2013-09-07T21:00:00Z,26.4679,-82.0631,4.96,1111122 
SCCF RECON,ioos:station:SCCF:11:1,2013-09-07T22:00:00Z,26.4679,-82.0631,4.5,1111122 
SCCF RECON,ioos:station:SCCF:11:1,2013-09-07T23:00:00Z,26.4679,-82.0631,4.27,1111122 
SCCF RECON,ioos:station:SCCF:11:1,2013-09-08T00:00:00Z,26.4679,-82.0631,5.08,1111122 
SCCF RECON,ioos:station:SCCF:11:1,2013-09-08T01:00:00Z,26.4679,-82.0631,4.94,1111122 
SCCF RECON,ioos:station:SCCF:11:1,2013-09-08T02:00:00Z,26.4679,-82.0631,4.55,1111122 
SCCF RECON,ioos:station:SCCF:11:1,2013-09-08T03:00:00Z,26.4679,-82.0631,5.29,1111122 
SCCF RECON,ioos:station:SCCF:11:1,2013-09-08T04:00:00Z,26.4679,-82.0631,6.47,1111122 
SCCF RECON,ioos:station:SCCF:11:1,2013-09-08T05:00:00Z,26.4679,-82.0631,5.68,1111122 
SCCF RECON,ioos:station:SCCF:11:1,2013-09-08T06:00:00Z,26.4679,-82.0631,4.73,1111122 
SCCF RECON,ioos:station:SCCF:11:1,2013-09-08T07:00:00Z,26.4679,-82.0631,4.24,1111122 
SCCF RECON,ioos:station:SCCF:11:1,2013-09-08T08:00:00Z,26.4679,-82.0631,3.53,1111122 
SCCF RECON,ioos:station:SCCF:11:1,2013-09-08T09:00:00Z,26.4679,-82.0631,3.88,1111122 
SCCF RECON,ioos:station:SCCF:11:1,2013-09-08T10:00:00Z,26.4679,-82.0631,4.42,1111122 
SCCF RECON,ioos:station:SCCF:11:1,2013-09-08T11:00:00Z,26.4679,-82.0631,3.91,1111122 
SCCF RECON,ioos:station:SCCF:11:1,2013-09-08T12:00:00Z,26.4679,-82.0631,4.08,1111122 
SCCF RECON,ioos:station:SCCF:11:1,2013-09-08T13:00:00Z,26.4679,-82.0631,4.22,1111122 
SCCF RECON,ioos:station:SCCF:11:1,2013-09-08T14:00:00Z,26.4679,-82.0631,3.7,1111122 
SCCF RECON,ioos:station:SCCF:11:1,2013-09-08T15:00:00Z,26.4679,-82.0631,5.12,1111122 
SCCF RECON,ioos:station:SCCF:11:1,2013-09-08T16:00:00Z,26.4679,-82.0631,4.64,1111122 
SCCF RECON,ioos:station:SCCF:11:1,2013-09-08T17:00:00Z,26.4679,-82.0631,4.78,1111122 
SCCF RECON,ioos:station:SCCF:11:1,2013-09-08T18:00:00Z,26.4679,-82.0631,3.86,1111122 
SCCF RECON,ioos:station:SCCF:11:1,2013-09-08T19:00:00Z,26.4679,-82.0631,4.15,1111122 
SCCF RECON,ioos:station:SCCF:11:1,2013-09-08T20:00:00Z,26.4679,-82.0631,4.27,1111122 
SCCF RECON,ioos:station:SCCF:11:1,2013-09-08T21:00:00Z,26.4679,-82.0631,4.03,1111122 
SCCF RECON,ioos:station:SCCF:11:1,2013-09-08T22:00:00Z,26.4679,-82.0631,3.67,1111122 
SCCF RECON,ioos:station:SCCF:11:1,2013-09-08T23:00:00Z,26.4679,-82.0631,3.88,1111122 
SCCF RECON,ioos:station:SCCF:11:1,2013-09-09T00:00:00Z,26.4679,-82.0631,4.31,1111122 
SCCF RECON,ioos:station:SCCF:11:1,2013-09-09T01:00:00Z,26.4679,-82.0631,4.54,1111122 
SCCF RECON,ioos:station:SCCF:11:1,2013-09-09T02:00:00Z,26.4679,-82.0631,4.1,1111122 
SCCF RECON,ioos:station:SCCF:11:1,2013-09-09T03:00:00Z,26.4679,-82.0631,3.43,1111122 
SCCF RECON,ioos:station:SCCF:11:1,2013-09-09T04:00:00Z,26.4679,-82.0631,4.15,1111122 
SCCF RECON,ioos:station:SCCF:11:1,2013-09-09T05:00:00Z,26.4679,-82.0631,3.81,1111122 
SCCF RECON,ioos:station:SCCF:11:1,2013-09-09T06:00:00Z,26.4679,-82.0631,3.88,1111122 
SCCF RECON,ioos:station:SCCF:11:1,2013-09-09T07:00:00Z,26.4679,-82.0631,3.61,1111122 
SCCF RECON,ioos:station:SCCF:11:1,2013-09-09T08:00:00Z,26.4679,-82.0631,3.4,1111122 
SCCF RECON,ioos:station:SCCF:11:1,2013-09-09T09:00:00Z,26.4679,-82.0631,4.06,1111122 
SCCF RECON,ioos:station:SCCF:11:1,2013-09-09T10:00:00Z,26.4679,-82.0631,3.56,1111122 
SCCF RECON,ioos:station:SCCF:11:1,2013-09-09T11:00:00Z,26.4679,-82.0631,3.7,1111122 
SCCF RECON,ioos:station:SCCF:11:1,2013-09-09T12:00:00Z,26.4679,-82.0631,6.36,1111122 
SCCF RECON,ioos:station:SCCF:11:1,2013-09-09T13:00:00Z,26.4679,-82.0631,6.49,1111122 
SCCF RECON,ioos:station:SCCF:11:1,2013-09-09T14:00:00Z,26.4679,-82.0631,6.49,1111122 
SCCF RECON,ioos:station:SCCF:11:1,2013-09-09T15:00:00Z,26.4679,-82.0631,6.56,1111122 
SCCF RECON,ioos:station:SCCF:11:1,2013-09-09T16:00:00Z,26.4679,-82.0631,6.32,1111122 
SCCF RECON,ioos:station:SCCF:11:1,2013-09-09T17:00:00Z,26.4679,-82.0631,7.02,1111122 
SCCF RECON,ioos:station:SCCF:11:1,2013-09-09T18:00:00Z,26.4679,-82.0631,7.2,1111122 
SCCF RECON,ioos:station:SCCF:11:1,2013-09-09T19:00:00Z,26.4679,-82.0631,7.2,1111122 
SCCF RECON,ioos:station:SCCF:11:1,2013-09-09T20:00:00Z,26.4679,-82.0631,7.25,1111122 
SCCF RECON,ioos:station:SCCF:11:1,2013-09-09T21:00:00Z,26.4679,-82.0631,7.19,1111122 
SCCF RECON,ioos:station:SCCF:11:1,2013-09-09T22:00:00Z,26.4679,-82.0631,7.18,1111122 
SCCF RECON,ioos:station:SCCF:11:1,2013-09-09T23:00:00Z,26.4679,-82.0631,7.19,1111122 
SCCF RECON,ioos:station:SCCF:11:1,2013-09-10T00:00:00Z,26.4679,-82.0631,7.16,1111122 
SCCF RECON,ioos:station:SCCF:11:1,2013-09-10T01:00:00Z,26.4679,-82.0631,7.19,1111122 
SCCF RECON,ioos:station:SCCF:11:1,2013-09-10T02:00:00Z,26.4679,-82.0631,7.16,1111122 
SCCF RECON,ioos:station:SCCF:11:1,2013-09-10T03:00:00Z,26.4679,-82.0631,7.14,1111122 
SCCF RECON,ioos:station:SCCF:11:1,2013-09-10T04:00:00Z,26.4679,-82.0631,6.27,1111122 
SCCF RECON,ioos:station:SCCF:11:1,2013-09-10T05:00:00Z,26.4679,-82.0631,6.34,1111122 
SCCF RECON,ioos:station:SCCF:11:1,2013-09-10T06:00:00Z,26.4679,-82.0631,6.41,1111122 
SCCF RECON,ioos:station:SCCF:11:1,2013-09-10T07:00:00Z,26.4679,-82.0631,6.48,1111122 
SCCF RECON,ioos:station:SCCF:11:1,2013-09-10T08:00:00Z,26.4679,-82.0631,6.66,1111122 
SCCF RECON,ioos:station:SCCF:11:1,2013-09-10T09:00:00Z,26.4679,-82.0631,6.51,1111122 
SCCF RECON,ioos:station:SCCF:11:1,2013-09-10T10:00:00Z,26.4679,-82.0631,6.55,1111122 
SCCF RECON,ioos:station:SCCF:11:1,2013-09-10T11:00:00Z,26.4679,-82.0631,6.58,1111122 
SCCF RECON,ioos:station:SCCF:11:1,2013-09-10T12:00:00Z,26.4679,-82.0631,6.66,1111122 
SCCF RECON,ioos:station:SCCF:11:1,2013-09-10T13:00:00Z,26.4679,-82.0631,6.79,1111122 
SCCF RECON,ioos:station:SCCF:11:1,2013-09-10T14:00:00Z,26.4679,-82.0631,6.79,1111122 
SCCF RECON,ioos:station:SCCF:11:1,2013-09-10T15:00:00Z,26.4679,-82.0631,6.94,1111122 
SCCF RECON,ioos:station:SCCF:11:1,2013-09-10T16:00:00Z,26.4679,-82.0631,7.07,1111122 
SCCF RECON,ioos:station:SCCF:11:1,2013-09-10T17:00:00Z,26.4679,-82.0631,7.19,1111122 
SCCF RECON,ioos:station:SCCF:11:1,2013-09-10T18:00:00Z,26.4679,-82.0631,7.46,1111122 
SCCF RECON,ioos:station:SCCF:11:1,2013-09-10T19:00:00Z,26.4679,-82.0631,7.34,1111122 
SCCF RECON,ioos:station:SCCF:11:1,2013-09-10T20:00:00Z,26.4679,-82.0631,7.44,1111122 
SCCF RECON,ioos:station:SCCF:11:1,2013-09-10T21:00:00Z,26.4679,-82.0631,7.33,1111122 
SCCF RECON,ioos:station:SCCF:11:1,2013-09-10T22:00:00Z,26.4679,-82.0631,7.25,1111122 
SCCF RECON,ioos:station:SCCF:11:1,2013-09-10T23:00:00Z,26.4679,-82.0631,7.26,1111122 
SCCF RECON,ioos:station:SCCF:11:1,2013-09-11T00:00:00Z,26.4679,-82.0631,7.28,1111122 
SCCF RECON,ioos:station:SCCF:11:1,2013-09-11T01:00:00Z,26.4679,-82.0631,7.27,1111122 
SCCF RECON,ioos:station:SCCF:11:1,2013-09-11T02:00:00Z,26.4679,-82.0631,7.16,1111122 
SCCF RECON,ioos:station:SCCF:11:1,2013-09-11T03:00:00Z,26.4679,-82.0631,7.17,1111122 
SCCF RECON,ioos:station:SCCF:11:1,2013-09-11T04:00:00Z,26.4679,-82.0631,7.12,1111122 
SCCF RECON,ioos:station:SCCF:11:1,2013-09-11T05:00:00Z,26.4679,-82.0631,7.2,1111122 
SCCF RECON,ioos:station:SCCF:11:1,2013-09-11T06:00:00Z,26.4679,-82.0631,7.48,1111122 
SCCF RECON,ioos:station:SCCF:11:1,2013-09-11T07:00:00Z,26.4679,-82.0631,7.45,1111122 
SCCF RECON,ioos:station:SCCF:11:1,2013-09-11T08:00:00Z,26.4679,-82.0631,7.39,1111122 
SCCF RECON,ioos:station:SCCF:11:1,2013-09-11T09:00:00Z,26.4679,-82.0631,7.35,1111122 
SCCF RECON,ioos:station:SCCF:11:1,2013-09-11T10:00:00Z,26.4679,-82.0631,7.3,1111122 
SCCF RECON,ioos:station:SCCF:11:1,2013-09-11T11:00:00Z,26.4679,-82.0631,7.2,1111122 
SCCF RECON,ioos:station:SCCF:11:1,2013-09-11T12:00:00Z,26.4679,-82.0631,7.25,1111122 
SCCF RECON,ioos:station:SCCF:11:1,2013-09-11T13:00:00Z,26.4679,-82.0631,7.3,1111122 
SCCF RECON,ioos:station:SCCF:11:1,2013-09-11T14:00:00Z,26.4679,-82.0631,7.64,1111122 
SCCF RECON,ioos:station:SCCF:11:1,2013-09-11T15:00:00Z,26.4679,-82.0631,7.63,1111122 
SCCF RECON,ioos:station:SCCF:11:1,2013-09-11T16:00:00Z,26.4679,-82.0631,7.76,1111122 
SCCF RECON,ioos:station:SCCF:11:1,2013-09-11T17:00:00Z,26.4679,-82.0631,7.71,1111122 
SCCF RECON,ioos:station:SCCF:11:1,2013-09-11T18:00:00Z,26.4679,-82.0631,7.7,1111122 
SCCF RECON,ioos:station:SCCF:11:1,2013-09-11T19:00:00Z,26.4679,-82.0631,7.91,1111122 
SCCF RECON,ioos:station:SCCF:11:1,2013-09-11T20:00:00Z,26.4679,-82.0631,7.94,1111122 
SCCF RECON,ioos:station:SCCF:11:1,2013-09-11T21:00:00Z,26.4679,-82.0631,7.99,1111122 
SCCF RECON,ioos:station:SCCF:11:1,2013-09-11T22:00:00Z,26.4679,-82.0631,8.0,1111122 
SCCF RECON,ioos:station:SCCF:11:1,2013-09-11T23:00:00Z,26.4679,-82.0631,8.03,1111122 
SCCF RECON,ioos:station:SCCF:11:1,2013-09-12T00:00:00Z,26.4679,-82.0631,8.0,1111122 
SCCF RECON,ioos:station:SCCF:11:1,2013-09-12T01:00:00Z,26.4679,-82.0631,7.97,1111122 
SCCF RECON,ioos:station:SCCF:11:1,2013-09-12T02:00:00Z,26.4679,-82.0631,7.97,1111122 
SCCF RECON,ioos:station:SCCF:11:1,2013-09-12T03:00:00Z,26.4679,-82.0631,8.0,1111122 
SCCF RECON,ioos:station:SCCF:11:1,2013-09-12T04:00:00Z,26.4679,-82.0631,8.13,1111122 
SCCF RECON,ioos:station:SCCF:11:1,2013-09-12T05:00:00Z,26.4679,-82.0631,8.11,1111122 
SCCF RECON,ioos:station:SCCF:11:1,2013-09-12T06:00:00Z,26.4679,-82.0631,8.13,1111122 
SCCF RECON,ioos:station:SCCF:11:1,2013-09-12T07:00:00Z,26.4679,-82.0631,8.15,1111122 
SCCF RECON,ioos:station:SCCF:11:1,2013-09-12T08:00:00Z,26.4679,-82.0631,8.1,1111122 
SCCF RECON,ioos:station:SCCF:11:1,2013-09-12T09:00:00Z,26.4679,-82.0631,8.16,1111122 
SCCF RECON,ioos:station:SCCF:11:1,2013-09-12T10:00:00Z,26.4679,-82.0631,8.2,1111122 
SCCF RECON,ioos:station:SCCF:11:1,2013-09-12T11:00:00Z,26.4679,-82.0631,8.11,1111122 
SCCF RECON,ioos:station:SCCF:11:1,2013-09-12T12:00:00Z,26.4679,-82.0631,8.11,1111122 
SCCF RECON,ioos:station:SCCF:11:1,2013-09-12T13:00:00Z,26.4679,-82.0631,8.19,1111122 